Welcome to the New NWS' Forecast!
Most changes are behind the scenes, but click here for differences you might notice.
Latest weather observations around

Bedford, Hanscom Field (KBED)

Using English Units (Switch to International System of Units)
Date/ Time (EDT) Wind (mph) Vis. (mi) Weather Sky Cond. Temp (°F) Rel. Humidity Wind Chill (°F) Heat Index (°F) Pressure Precip. (in)
Air Dwpt 6 hour Altimeter (inHg) Sea level (inHg) 1 hr 3 hr 6 hr
Max Min
Sep 19 23:56 NNW 6 10 Cloudy FEW023 OVC028 60 55     83%     30.1 30.14      
Sep 19 22:56 NNE 6 10 Cloudy OVC023 60 55     83%     30.09 30.13      
Sep 19 22:36 N 5 10 Cloudy SCT023 BKN027 OVC050 60 55     83%     30.09        
Sep 19 22:23 N 6 10 Cloudy SCT029 OVC050 60 55     83%     30.09        
Sep 19 22:12 Calm 10 Cloudy FEW021 BKN029 OVC050 60 55     83%     30.09        
Sep 19 21:56 NE 5 10 Cloudy SCT029 OVC050 60 55     83%     30.08 30.12      
Sep 19 21:13 NNE 6 10 Cloudy OVC030 60 55     83%     30.09        
Sep 19 20:56 NE 7 10 Cloudy BKN028 OVC034 60 55     83%     30.08 30.11      
Sep 19 19:56 NE 7 10 Mostly Cloudy FEW015 BKN026 60 54     80%     30.06 30.09      
Sep 19 19:25 ENE 5 10 Cloudy BKN026 OVC050 61 54     78%     30.05        
Sep 19 19:03 NE 7 10 Cloudy OVC050 61 54     78%     30.04        
Sep 19 18:56 ENE 9 10 Cloudy BKN025 BKN030 OVC050 61 54     78%     30.03 30.07      
Sep 19 17:56 ENE 8 10 Cloudy BKN018 BKN030 OVC048 63 55     75%     30.02 30.05      
Sep 19 16:56 E 7 10 Cloudy BKN022 OVC048 65 56     73%     29.98 30.01      
Sep 19 15:56 ENE 7 10 Cloudy OVC015 65 56     73%     29.97 30.01      
Sep 19 14:56 NE 6 10 Cloudy BKN015 OVC021 64 56     75%     29.97 30      
Sep 19 14:46 NE 6 10 Cloudy BKN015 OVC021 64 57     78%     29.97        
Sep 19 13:56 NNE 6 10 Cloudy OVC011 63 57     81%     29.97 30      
Sep 19 13:22 ENE 10 10 Fog/Mist OVC011 63 58     84%     29.97        
Sep 19 12:56 NNE 8 5 Fog/Mist OVC008 63 58     84%     29.97 30      
Sep 19 12:52 NE 9 5 Fog/Mist OVC008 63 57     83%     29.97        
Sep 19 12:05 ENE 8 5 Fog/Mist BKN010 OVC015 63 58     84%     29.97        
Sep 19 11:56 NE 8 5 Fog/Mist OVC008 62 58     86%     29.96 30      
Sep 19 11:13 ENE 8 9 Fog/Mist BKN006 OVC015 62 58     86%     29.96        
Sep 19 11:03 NE 8 10 Fog/Mist BKN010 OVC017 63 58     84%     29.96        
Sep 19 09:56 NE 10 5 Fog/Mist BKN007 OVC015 62 58     86%     29.94 29.97      
Sep 19 09:03 NE 11 4 Fog/Mist OVC008 61 58     90%     29.92        
Sep 19 08:56 NE 11 2 Fog/Mist OVC006 61 59     93%     29.92 29.95      
Sep 19 08:52 NNE 9 2 Fog/Mist OVC006 61 59     94%     29.92        
Sep 19 07:56 NE 9 3 Fog/Mist OVC006 61 59     93%     29.9 29.93      
Sep 19 07:03 NE 8 10 Cloudy OVC007 61 61     100%     29.87        
Sep 19 06:56 NE 8 2 Fog/Mist OVC006 61 61     100%     29.87 29.91      
Sep 19 06:54 NE 8 2 Fog/Mist OVC006 61 61     100%     29.87        
Sep 19 05:56 NNE 11 5 Fog OVC006 62 60     93%     29.86 29.89      
Sep 19 04:56 NE 10 9 Fog OVC005 64 62     93%     29.83 29.86      
Sep 19 04:43 NNE 10 6 Fog OVC005 65 63     93%     29.82        
Sep 19 04:06 NE 13 6 Fog OVC004 66 65     96%     29.8        
Sep 19 03:56 ENE 14 8 Fog OVC005 67 65     93%     29.8 29.83      
Sep 19 02:56 NNE 7 10 Fog BKN006 BKN009 67 66     97%     29.78 29.81      
Sep 19 01:57 NW 5 3 Fog FEW003 BKN060 62 61     96%     29.77        
Sep 19 01:52 NW 5 1.25 Fog FEW003 BKN060 62 61     96%     29.77 29.8      
Sep 19 01:51 NW 3 1 Fog FEW003 SCT060 63 61     94%     29.77        
Sep 19 01:38 Calm 0.75 Fog VV002 63 62     97%     29.77        
Sep 19 01:33 Calm 1.75 Fog CLR 63 62     97%     29.77        
Sep 19 01:26 Calm 3 Fog CLR 63 61     93%     29.77        
Sep 19 01:20 Calm 1.25 Fog FEW002 63 62     97%     29.76        
Sep 19 00:56 Calm 0.5 Fog VV002 63 62     97%     29.76 29.79      
Sep 19 00:39 Calm 1.25 Fog BKN002 63 61     93%     29.75        
Sep 19 00:30 Calm 0.75 Fog VV002 64 63     96%     29.75        
Sep 18 23:56 Calm 1 Fog VV002 65 63     93%     29.76 29.79      
Sep 18 23:43 NW 3 3 Fog BKN002 63 62     97%     29.76        
Sep 18 23:36 Calm 1.25 Fog BKN002 64 62     93%     29.76        
Sep 18 23:10 Calm 0.75 Fog VV002 64 63     96%     29.76        
Sep 18 23:03 Calm 1 Fog VV002 65 64     97%     29.76        
Sep 18 22:56 Calm 10 Fog SCT130 65 64     97%     29.76 29.79      
Sep 18 22:04 Calm 10 Fog SCT130 66 65     96%     29.75        
Sep 18 21:56 Calm 0.75 Fog VV002 65 64     97%     29.75 29.78      
Sep 18 21:37 Calm 0.75 Fog VV002 65 64     97%     29.75        
Sep 18 21:29 Calm 0.25 Fog VV002 65 64     97%     29.75        
Sep 18 21:06 Calm 0.75 Fog VV002 67 65     93%     29.75        
Sep 18 21:03 Calm 1.25 Fog CLR 67 65     93%     29.75        
Sep 18 20:56 Calm 10 Fog FEW010 BKN080 67 65     93%     29.75 29.78      
Sep 18 19:56 Calm 10 Fog FEW010 BKN080 68 66     93%     29.75 29.78     0
Sep 18 19:48 Calm 10 Fog FEW010 BKN080 68 66     93%     29.74        
Sep 18 19:39 Calm 1.25 Fog/Mist FEW010 BKN080 67 66     97%     29.74        
Sep 18 18:56 WSW 3 10 Mostly Cloudy FEW010 BKN080 70 68     93%     29.73 29.76      
Sep 18 17:56 SW 3 10 Mostly Cloudy SCT010 BKN080 73 68     84%   74 29.73 29.76      
Sep 18 17:03 Calm 10 Mostly Cloudy SCT010 BKN060 BKN080 73 68     84%   74 29.74        
Sep 18 16:56 Calm 10 Cloudy BKN009 OVC060 73 68     84%   74 29.74 29.77   0  
Sep 18 16:51 Calm 10 Cloudy BKN009 OVC060 73 68     83%   74 29.74        
Sep 18 16:41 NNW 3 10 Cloudy FEW008 OVC060 73 68     84%   74 29.75        
Sep 18 16:34 Calm 10 Cloudy SCT010 OVC060 73 68     84%   74 29.75        
Sep 18 16:06 N 3 10 Cloudy SCT008 BKN012 OVC120 73 69     87%   74 29.75        
Sep 18 15:56 W 3 10 Mostly Cloudy BKN009 72 69     91%   73 29.75 29.78 0    
Sep 18 15:18 Calm 5 Light Rain and Fog/Mist BKN005 71 68     90%   72 29.74   0    
Sep 18 15:07 Calm 10 Light Rain and Fog/Mist FEW008 BKN011 71 68     90%   72 29.73   0    
Sep 18 14:56 NNW 5 10 Light Rain and Fog/Mist BKN005 71 68     90%   72 29.72 29.75 0    
Sep 18 14:20 NW 5 10 Light Rain and Fog/Mist BKN009 BKN019 OVC060 71 68     90%   72 29.73   0    
Sep 18 14:10 NNW 6 10 Light Rain and Fog/Mist SCT007 BKN015 OVC060 71 68     90%   72 29.72   0    
Sep 18 14:03 N 6 10 Light Rain and Fog/Mist FEW007 BKN013 OVC070 71 68     90%   72 29.71   0    
Sep 18 13:56 N 5 5 Light Rain and Fog/Mist OVC004 70 68     93%     29.71 29.74 0   1
Sep 18 13:54 NNW 6 5 Light Rain and Fog/Mist OVC004 70 68     94%     29.72   0    
Sep 18 13:30 NNW 7 5 Rain and Fog/Mist SCT007 BKN013 OVC019 70 68     93%     29.72   0    
Sep 18 13:14 NNE 5 7 Light Rain SCT007 BKN015 OVC027 70 68     93%     29.72   0    
Sep 18 11:56 NW 3 5 Light Rain and Fog/Mist OVC004 69 67     93%     29.73 29.75 0    
Sep 18 11:45 NNW 5 5 Rain and Fog/Mist OVC007 69 67     93%     29.72   0    
Sep 18 11:32 Calm 5 Light Rain and Fog/Mist OVC007 69 67     93%     29.73   0    
Sep 18 11:15 N 5 2.5 Rain and Fog/Mist SCT009 BKN037 OVC090 69 67     93%     29.72   0    
Sep 18 11:06 NW 6 5 Rain and Fog/Mist SCT009 BKN037 OVC090 68 67     96%     29.73   0    
Sep 18 10:59 N 8 2.5 Light Rain and Fog/Mist BKN037 OVC085 68 67     96%     29.72   0    
Sep 18 10:56 N 9 1 Thunderstorms and Rain and Fog/Mist OVC005 68 67     96%     29.71 29.75 1 1  
Sep 18 10:39 N 15 1 Light Rain and Fog/Mist OVC005 68 66     93%     29.73   1    
Sep 18 10:24   1 Light Rain and Fog/Mist OVC005 69 67     93%     29.7   1    
Sep 18 09:56 NE 9 5 Light Rain and Fog/Mist OVC008 71 68     90%   72 29.71 29.74 0    
Sep 18 08:56 S 8 4 Light Rain and Fog/Mist OVC007 75 72     90%   76 29.74 29.77 0    
Sep 18 07:56 S 10 4 Light Rain and Fog/Mist OVC009 73 70     90%   74 29.77 29.8 0   0
Sep 18 07:39 S 14 10 Light Rain FEW006 BKN011 OVC016 73 70     90%   74 29.77   0    
Sep 18 06:56 SE 11 4 Heavy Rain and Fog/Mist BKN008 OVC012 72 70     93%   73 29.78 29.81 0    
Sep 18 06:47 SE 8 9 Light Rain BKN008 OVC013 72 70     93%   73 29.79   0    
Sep 18 06:37 SE 6 10 Cloudy SCT008 BKN011 OVC021 72 69     91%   73 29.8        
Sep 18 06:21 ESE 7 10 Cloudy FEW013 BKN022 OVC060 72 69     91%   73 29.81        
Sep 18 05:56 E 5 10 Cloudy FEW011 SCT019 OVC060 71 69     93%   72 29.83 29.86 0    
Sep 18 05:47 E 6 10 Cloudy SCT011 BKN021 OVC060 71 69     93%   72 29.83   0    
Sep 18 05:29 E 5 4 Rain and Fog/Mist BKN013 OVC019 70 70     100%     29.84   0    
Sep 18 05:12 E 5 10 Light Rain FEW005 BKN017 OVC024 70 70     100%     29.85   0    
Sep 18 04:59 E 6 3 Rain and Fog/Mist SCT005 BKN014 OVC023 70 70     100%     29.86   0    
Sep 18 04:56 E 5 2.5 Heavy Rain and Fog/Mist BKN005 BKN014 OVC023 70 70     100%     29.86 29.89 0 0  
Sep 18 04:46 ENE 5 1.75 Heavy Rain and Fog/Mist BKN005 OVC014 70 69     97%     29.87   0    
Sep 18 04:30 ENE 5 7 Light Rain BKN006 OVC050 70 68     93%     29.86   0    
Sep 18 04:04 E 3 8 Light Rain FEW006 BKN014 OVC080 70 68     93%     29.88   0    
Sep 18 03:56 Calm 5 Rain and Fog/Mist FEW017 BKN055 OVC080 70 68     93%     29.88 29.91 0    
Sep 18 02:56 Calm 3 Rain and Fog/Mist BKN055 OVC070 71 69     93%   72 29.91 29.93 0    
Sep 18 01:56 SSW 5 10 Light Rain OVC095 71 68     90%   72 29.92 29.95 0   0
Sep 18 00:56 SSW 6 9 Light Rain FEW080 BKN110 71 68     90%   72 29.94 29.96 0    
Sep 17 23:56 SSW 6 10 Mostly Cloudy BKN110 72 68     87%   73 29.94 29.97      
Sep 17 22:56 SSW 9 10 Clear CLR 72 67     84%   73 29.95 29.98      
Sep 17 21:56 SSW 9 10 Clear CLR 73 67     81%   74 29.96 29.98      
Sep 17 20:56 SSW 8 10 Clear CLR 72 66     82%   73 29.96 30      
Sep 17 19:56 SSW 5 10 Mostly Cloudy BKN100 73 66     79%   74 29.97 30      
Sep 17 18:56 SSW 6 10 Clear CLR 73 64     73%   73 29.98 30.01      
Sep 17 17:56 SSW 8 10 Mostly Cloudy BKN100 76 63     64%   76 29.99 30.02      
Sep 17 16:56 SW 11 10 Clear CLR 79 63     58%   79 29.99 30.02      
Sep 17 15:56 SSW 10 10 Mostly Cloudy FEW040 BKN200 80 63     56%   81 30 30.03      
Sep 17 14:56 SSW 8 10 Mostly Cloudy SCT040 BKN200 81 65     58%   83 30.02 30.06      
Sep 17 13:56 SSW 9 10 Mostly Cloudy FEW050 BKN200 82 65     56%   84 30.04 30.07      
Sep 17 12:56 WSW 9 10 Partly Cloudy FEW050 SCT200 82 64     55%   84 30.07 30.1      
Sep 17 11:56 SW 10 10 Partly Cloudy SCT200 81 64     56%   83 30.09 30.12      
Sep 17 10:56 SW 9 10 Partly Cloudy SCT200 77 66     69%   78 30.11 30.14      
Sep 17 09:56 SW 10 10 Partly Cloudy SCT007 SCT200 73 65     76%   74 30.13 30.16      
Sep 17 09:35 SSW 8 10 Fog/Mist SCT007 71 66     84%   72 30.13        
Sep 17 08:56 SW 8 5 Fog/Mist OVC005 68 65     90%     30.14 30.17      
Sep 17 08:49 SSW 8 5 Fog/Mist OVC005 68 65     90%     30.14        
Sep 17 08:17 SSW 7 2 Fog/Mist VV004 67 64     90%     30.14        
Sep 17 08:03 SW 7 8 Cloudy OVC004 67 65     93%     30.14        
Sep 17 07:56 SW 8 2 Fog/Mist VV004 67 65     93%     30.14 30.17      
Sep 17 06:56 6 2 Fog/Mist VV003 66 64     93%     30.15 30.18      
Sep 17 05:56 SSW 7 4 Fog/Mist OVC002 66 64     93%     30.14 30.17      
Sep 17 05:25 S 7 3 Fog/Mist OVC002 66 64     93%     30.14        
Sep 17 05:04 SSW 5 2.5 Fog/Mist OVC002 66 64     93%     30.14        
Sep 17 04:56 SSW 3 1.75 Fog/Mist OVC002 66 65     96%     30.14 30.17      
Sep 17 04:09 S 5 1.25 Fog/Mist OVC002 66 64     93%     30.15        
Sep 17 03:56 S 5 2.5 Fog/Mist OVC002 66 64     93%     30.15 30.18      
Sep 17 03:21 SSW 3 8 Mostly Cloudy BKN004 65 64     97%     30.16        
Sep 17 03:05 S 3 9 Mostly Clear FEW004 65 63     93%     30.15        
Sep 17 02:56 SSW 3 7 Clear CLR 66 64     93%     30.16 30.19      
Sep 17 01:56 Calm 10 Clear CLR 66 63     90%     30.17 30.2      
Sep 17 00:56 Calm 10 Clear CLR 67 64     90%     30.18 30.21      
Sep 16 23:56 SW 3 10 Clear CLR 69 64     84%     30.19 30.22      
Sep 16 22:56 Calm 10 Clear CLR 70 64     81%     30.19 30.22      
Sep 16 21:56 Calm 10 Clear CLR 68 64     87%     30.19 30.22      
Sep 16 20:56 Calm 10 Clear CLR 71 64     79%   72 30.18 30.22      
Sep 16 19:56 Calm 10 Mostly Clear FEW060 72 64     76%   72 30.17 30.2      
Sep 16 18:56 ESE 3 10 Mostly Clear FEW060 78 64     62%   79 30.16 30.19      
Sep 16 17:56 SE 8 10 Mostly Clear FEW060 82 64     55%   84 30.16 30.19      
Sep 16 16:56 SE 7 10 Clear CLR 85 66     53%   87 30.15 30.19      
Sep 16 15:56 N 3 10 Partly Cloudy SCT040 89 66     47%   92 30.15 30.18      
Sep 16 14:56 Calm 10 Partly Cloudy SCT030 88 66     48%   90 30.16 30.19      
Sep 16 13:56 5 10 Mostly Clear FEW030 85 65     51%   87 30.17 30.2      
Sep 16 12:56 NW 6 10 Mostly Clear FEW030 86 64     48%   87 30.19 30.22      
Sep 16 11:56 Calm 10 Clear CLR 83 66     57%   85 30.19 30.22      
Sep 16 10:56 3 10 Clear CLR 81 66     61%   83 30.2 30.23      
Sep 16 09:56 Calm 10 Clear CLR 75 66     74%   76 30.21 30.24      
Sep 16 08:56 NNW 3 10 Clear CLR 69 64     84%     30.2 30.23      
Sep 16 07:56 Calm 10 Clear CLR 62 61     96%     30.19 30.23      
Sep 16 07:29 Calm 6 Fog/Mist FEW002 59 58     96%     30.19        
Sep 16 07:18 Calm 2.5 Fog/Mist SCT002 58 57     97%     30.19        
Sep 16 07:08 Calm 3 Fog/Mist BKN002 58 57     97%     30.19        
Sep 16 07:05 Calm 1.5 Fog/Mist OVC002 58 57     97%     30.19        
Sep 16 06:56 Calm 0.75 Fog/Mist VV002 58 57     97%     30.18 30.22      
Sep 16 06:52 Calm 0.5 Fog OVC002 57 57     100%     30.18        
Sep 16 06:42 Calm 0.25 Fog VV002 58 57     97%     30.19        
Sep 16 06:19 Calm 0.25 Fog VV002 58 56     93%     30.18        
Sep 16 05:56 Calm 0.25 Fog VV002 58 57     97%     30.18 30.22      
Sep 16 04:56 Calm 0.25 Fog VV002 58 57     97%     30.17 30.2      
Sep 16 04:39 Calm 0.25 Fog VV002 58 56     93%     30.16        
Sep 16 04:13 Calm 0.25 Fog VV002 58 57     97%     30.16        
Sep 16 03:56 Calm 0.75 Fog/Mist VV002 58 57     97%     30.16 30.19      
Sep 16 03:38 Calm 0.5 Fog VV002 59 58     96%     30.16        
Sep 16 02:56 Calm 0.25 Fog VV002 59 58     96%     30.16 30.19      
Sep 16 02:36 Calm 0.25 Fog VV002 59 58     96%     30.16        
Sep 16 02:09 Calm 0.25 Fog OVC002 58 57     97%     30.16        
Sep 16 01:56 Calm 0.5 Fog VV003 58 57     97%     30.16 30.2      
Sep 16 01:36 Calm 1 Fog/Mist VV004 58 56     93%     30.17        
Sep 16 01:25 Calm 1.25 Fog/Mist SCT003 58 57     97%     30.17        
Sep 16 01:05 Calm 0.75 Fog/Mist VV002 58 57     97%     30.17        
Sep 16 01:03 Calm 1 Fog/Mist VV002 58 57     97%     30.17        
Sep 16 00:59 Calm 2.5 Fog/Mist FEW002 58 56     93%     30.17        
Sep 16 00:56 Calm 5 Fog/Mist FEW002 58 56     93%     30.17 30.2      
Sep 16 00:34 Calm 5 Fog/Mist FEW004 59 58     96%     30.17        
Sep 16 00:25 Calm 2 Fog/Mist FEW004 60 58     93%     30.17        
Sep 16 00:20 Calm 1 Fog/Mist VV003 60 58     93%     30.17        
Sep 16 00:14 Calm 2 Fog/Mist SCT004 60 58     93%     30.17        
Sep 15 23:56 Calm 7 Clear CLR 60 57     90%     30.17 30.21      
Sep 15 23:04 Calm 3 Fog/Mist CLR 61 59     93%     30.18        
Sep 15 22:56 Calm 1.5 Fog/Mist CLR 61 60     97%     30.17 30.21      
Sep 15 22:54 Calm 1.75 Fog/Mist CLR 61 61     100%     30.17        
Sep 15 21:56 Calm 9 Clear CLR 63 61     93%     30.17 30.21      
Sep 15 20:56 Calm 10 Clear CLR 66 62     87%     30.18 30.21      
Sep 15 19:56 ESE 6 10 Clear CLR 68 63     84%     30.17 30.2      
Sep 15 18:56 ESE 5 10 Mostly Clear FEW030 72 64     76%   72 30.16 30.19      
Sep 15 17:56 Calm 10 Mostly Clear FEW040 76 64     67%   76 30.17 30.2      
Sep 15 16:56 ENE 5 10 Partly Cloudy SCT020 77 64     64%   77 30.16 30.2      
Sep 15 16:17 E 5 10 Partly Cloudy SCT018 78 65     64%   79 30.16        
Sep 15 16:10 Calm 10 Mostly Cloudy BKN018 77 64     64%   77 30.17        
Sep 15 16:03 Calm 10 Clear CLR 77 64     64%   77 30.17        
Sep 15 15:56 E 3 10 Mostly Cloudy BKN018 76 64     67%   76 30.17 30.2      
Sep 15 14:56 3 10 Mostly Cloudy BKN020 77 64     64%   77 30.17 30.21      
Sep 15 14:03 Calm 10 Cloudy OVC016 72 64     76%   72 30.19        
Sep 15 13:56 Calm 10 Cloudy OVC014 72 64     76%   72 30.19 30.23      
Sep 15 13:52 Calm 10 Cloudy OVC014 73 64     73%   74 30.2        
Sep 15 13:41 Calm 10 Fog/Mist OVC009 72 64     76%   72 30.2        
May 14 11:56 7 10 Cloudy OVC027 62 51     67%     29.97 30.01      
May 14 05:56 Calm 10 Clear   50 47     89%     30 30.04      
May 13 01:34 NNW 5 8 Mostly Cloudy BKN006 46 45     96% 44   30.12        
May 12 16:56 NNW 5 3 Light Rain and Fog/Mist OVC005 48 47     96% 46   30.11 30.15 0 0  
Jun 11 22:56 SW 6 10 Clear CLR 78 61     56%   78 29.91 29.94      
Jun 11 12:56 WSW 8 10 Clear CLR 83 58     43%   83 29.94 29.97      
Jun 10 08:56 SW 6 10 Clear CLR 73 53     50%   72 29.95 29.98      
Jun 09 09:56 W 7 10 Partly Cloudy SCT150 70 44     39%     29.64 29.67      
Jun 09 03:56 Calm 10 Clear   55 47     74%     29.71 29.74      
Jun 08 11:56 5 10 Clear CLR 77 47     35%   76 30 30.03      
Jun 07 16:56 ESE 8 10 Mostly Clear FEW040 70 44     39%     29.94 29.98      
Jun 07 11:56 NE 9 10 Clear CLR 66 50     56%     29.95 29.99      
Jun 06 08:48 NE 11 2 Fog/Mist OVC004 49 47     93% 44   29.82   0    
Notice The following observation data may not be complete
Jun 06 08:03   1.75 Fog/Mist BKN010 OVC014          %         0    
Jun 06 05:56 NE 16 1.5 Fog/Mist OVC009 49 46     90% 43   29.8 29.84 0    
Notice The following observation data may not be complete
Jun 06 03:56   6 Light Rain and Fog/Mist OVC010          %         0    
Jun 05 14:56 ENE 10 1.25 Fog/Mist VV004 56 53     90%     29.85 29.88